一网星座-0054星 (ONEWEB-0054 )

导读

ONEWEB-0054是英国OneWeb卫星互联网星座的一员,于2020年2月6日发射,属于低地球轨道通信卫星。作为OneWeb全球网络部署阶段的卫星,它旨在为全球提供高速低延迟宽带服务,覆盖偏远地区、海事和航空等场景。OneWeb星座计划通过数百颗低轨卫星实现全球网络覆盖,ONEWEB-0054是该星座构建全球卫星互联网基础设施的重要组成部分,推动了空天地一体化网络发展。

基本信息
目录编号:
45158
目录名称:
ONEWEB-0054
国际标识:
2020-008AD
轨道中心:
EARTH
卫星名称:
一网星座-0054星
卫星全名:
一网星座-0054星 (ONEWEB-0054 )
卫星状态:
在轨 (已飞行2409 天)
发射日期:
2020-02-06 UTC
国别 :
英国 (GB)
星等 :
--
该卫星已列入 空间交会检测服务 Space Conjunction Data Service (SCDS) ,当前飞行风险评估等级: 无高风险
轨道信息
数据来源 国际轨道数据 AOE轨道数据
星历时间 2026-09-11T02:08:40+0800
16小时前
查看轨道信息
2026-09-10T06:00:00+0800
1天前
查看轨道信息
半长轴 7599.866km 7599.849km
偏心率 0.0001658 0.0001662
轨道倾角 87.889° 87.889°
近地点辐角 101.790° 99.959°
升交点赤经 19.230° 19.397°
平近点角 258.341° 262.911°
近地点 1220.468km 1220.448km
远地点 1222.99km 1222.976km
周期 109.893分钟 109.892分钟
每日圈数 13.1037 13.103744
详细信息
平衡模式:
三轴稳定
覆盖范围:
全球
运营商:
一网卫星公司
运营商所在国:
英国
制造商(研发单位):
一网卫星公司
制造商所在国:
英国
使用方式:
暂无
卫星简介
OneWeb卫星网络由648颗重约125公斤的微型卫星组成,运行在1200公里的轨道上。 每颗卫星都能够提供至少每秒8千兆位的吞吐量,以使用其高吞吐量的Ku频段有效载荷为家庭和移动平台提供互联网接入。该卫星仍在工作。
2D轨道图
3D轨道图
轨道高度分析图
轨道倾角分析图
轨道综合分析图
查看轨道综合分析图
与全量物体交会距离演化趋势
与全量物体交会风险概率演化趋势